Newberry Springs, CA

6:36 PM PST on February 21, 2017 (GMT -0800)
Barstow-Daggett

Weather History for KDAG - May, 2009

Change the Weather History Date:

Tuesday, May 26, 2009

  Actual Average Record
Temperature  
Mean Temperature 78 °F 77 °F  
Max Temperature 97 °F 92 °F 110 °F (1951)
Min Temperature 60 °F 62 °F 46 °F (1953)
Degree Days  
Heating Degree Days 0    
Cooling Degree Days 13    
Growing Degree Days 28 (Base 50)    
Moisture  
Dew Point 28 °F    
Average Humidity 18    
Maximum Humidity 35    
Minimum Humidity 6    
Precipitation  
Precipitation 0.00 in 0.00 in 0.00 in (2017)
Month to date precipitation 0.04  
Year to date precipitation 1.97  
Sea Level Pressure  
Sea Level Pressure 29.76 in    
Wind  
Wind Speed 11 mph (NW)    
Max Wind Speed 17 mph    
Max Gust Speed 20 mph    
Visibility 10 miles    
Events      
T = Trace of Precipitation, MM = Missing Value Source: NWS Daily Summary

Daily Weather History Graph

Daily Weather History Graph

Search for Another Location

Airport or City:

Trip Planner

Search our weather history database for the weather conditions in past years. The results will help you decide how hot, cold, wet, or windy it might be!

Date:

Astronomy

May. 26, 2009 Rise Set
Actual Time 5:36 AM PDT 7:51 PM PDT
Civil Twilight 5:08 AM PDT 8:20 PM PDT
Nautical Twilight 4:32 AM PDT 8:55 PM PDT
Astronomical Twilight 3:54 AM PDT 9:34 PM PDT
Moon 7:33 AM PDT (5/26) 10:41 PM PDT (5/26)
Length of Visible Light 15h 12m
Length of Day
14h 14m
Waxing Crescent, 8% of the Moon is Illuminated
May 26
Waxing Crescent
May 30
First Quarter
Jun 7
Full
Jun 15
Last Quarter
Jun 22
New

Hourly Weather History & Observations

Time (PDT) Temp. Dew Point Humidity Pressure Visibility Wind Dir Wind Speed Gust Speed Precip Events Conditions
12:51 AM 72.0 °F 30.0 °F 21% 29.76 in 10.0 mi West 17.3 mph - N/A   Clear
1:51 AM 68.0 °F 34.0 °F 28% 29.77 in 10.0 mi WNW 13.8 mph - N/A   Clear
2:51 AM 64.9 °F 33.1 °F 31% 29.77 in 10.0 mi West 9.2 mph - N/A   Clear
3:51 AM 63.0 °F 32.0 °F 31% 29.77 in 10.0 mi WSW 9.2 mph - N/A   Clear
4:51 AM 62.1 °F 32.0 °F 32% 29.78 in 10.0 mi West 10.4 mph - N/A   Clear
5:51 AM 60.1 °F 32.0 °F 35% 29.80 in 10.0 mi West 10.4 mph - N/A   Clear
6:51 AM 64.0 °F 33.1 °F 31% 29.81 in 10.0 mi West 10.4 mph - N/A   Clear
7:51 AM 70.0 °F 32.0 °F 25% 29.82 in 10.0 mi West 11.5 mph - N/A   Clear
8:51 AM 75.0 °F 30.9 °F 20% 29.83 in 10.0 mi WNW 12.7 mph - N/A   Clear
9:51 AM 80.1 °F 30.9 °F 17% 29.82 in 10.0 mi WNW 10.4 mph - N/A   Clear
10:51 AM 82.0 °F 32.0 °F 16% 29.81 in 10.0 mi Calm Calm - N/A   Clear
11:51 AM 88.0 °F 30.0 °F 12% 29.80 in 10.0 mi NNE 5.8 mph - N/A   Clear
12:51 PM 91.0 °F 28.9 °F 11% 29.77 in 10.0 mi ENE 9.2 mph - N/A   Clear
1:51 PM 93.9 °F 21.9 °F 7% 29.75 in 10.0 mi East 10.4 mph - N/A   Clear
2:51 PM 96.1 °F 18.0 °F 6% 29.72 in 10.0 mi NE 11.5 mph - N/A   Clear
3:51 PM 95.0 °F 18.0 °F 6% 29.71 in 10.0 mi NE 12.7 mph 19.6 mph N/A   Clear
4:51 PM 96.1 °F 17.1 °F 6% 29.70 in 10.0 mi NE 8.1 mph - N/A   Clear
5:51 PM 95.0 °F 19.9 °F 7% 29.69 in 10.0 mi NNE 6.9 mph - N/A   Clear
6:51 PM 93.0 °F 19.9 °F 7% 29.70 in 10.0 mi NE 3.5 mph - N/A   Clear
7:51 PM 89.1 °F 21.0 °F 8% 29.70 in 10.0 mi Calm Calm - N/A   Clear
8:51 PM 84.0 °F 23.0 °F 11% 29.73 in 10.0 mi West 11.5 mph - N/A   Clear
9:51 PM 81.0 °F 33.1 °F 18% 29.77 in 10.0 mi West 6.9 mph - N/A   Clear
10:51 PM 82.0 °F 33.1 °F 17% 29.78 in 10.0 mi West 9.2 mph - N/A   Clear
11:51 PM 77.0 °F 35.1 °F 22% 29.78 in 10.0 mi West 11.5 mph - N/A   Clear